Volver al catálogo

HULIANWANG DIGUI-41

ActivoComunicacionesLEO
NORAD 65044·PAYLOAD·🇨🇳 China

Lanzado Jul 30, 2025 desde Wenchang Space Launch Site

Loading…

Próximos Pases (próximas 24 horas)

TLE

ActualizadoSource: Space-Track

Época: Sep 14, 2026, 13:06 UTC

1 65044U 25162B   26257.54604908 -.00000102  00000-0  46490-4 0  9994
2 65044  50.0013 305.3823 0000704 259.3462 100.7331 13.29325873 55240

Sigue HULIANWANG DIGUI-41 en tiempo real con AllMySat

Download on the App Store